Home   Weather   Gaggenau   Past weeks

Flag for Germany Past Weather in Gaggenau, Baden-Württemberg, Germany — Yesterday and Last 2 Weeks

Now
27 °F

Passing clouds.


Feels Like: 15 °F
Forecast: 20 / 26 °F
Wind: 14 mph from Northeast

Location: Karlsruhe - Baden Wurttemberg

Current Time: Jan 17, 2017 at 10:37:14 pm

Latest Report: Jan 17, 2017 at 10:20 pm


Visibility: N/A

Pressure: 30.54 "Hg

Humidity: 80%

Dew Point: 21 °F

Location of GaggenauLocation

Past Weather in Gaggenau — Graph

°F

Gaggenau Temperature Yesterday

Maximum temperature yesterday: 32 °F (at 12:50 pm)
Minimum temperature yesterday: 23 °F (at 6:20 am)
Average temperature yesterday: 29 °F

High & Low Weather Summary for the Past Weeks

 TemperatureHumidityPressure
High46 °F (Jan 12, 11:20 pm)100% (Jan 2, 9:20 pm)30.72 "Hg (Jan 2, 9:20 pm)
Low9 °F (Jan 7, 1:50 am)55% (Jan 17, 3:50 pm)29.33 "Hg (Jan 12, 11:50 pm)
Average31 °F90%30.20 "Hg
* Reported Jan 2 9:20 pm — Jan 17 9:20 pm, Gaggenau, Weather by CustomWeather, © 2017

Note: Actual official high and low records may vary slightly from our data, if they occured in-between our weather recording intervals... More about our weather records

Advertising

Gaggenau Weather History for the Previous 24 Hours

Scroll right to see more
 ConditionsComfort  
Time TempWeatherWind HumidityBarometerVisibility
9:20 pm
Tue, Jan 17
27 °FPassing clouds.15 mph80%30.54 "HgN/A
8:50 pm27 °FPassing clouds.15 mph80%30.51 "HgN/A
8:20 pm28 °FPassing clouds.16 mph74%30.51 "HgN/A
7:50 pm28 °FPassing clouds.17 mph74%30.51 "HgN/A
7:20 pm30 °FPassing clouds.14 mph69%30.51 "HgN/A
6:50 pm30 °FPassing clouds.17 mph69%30.51 "HgN/A
6:20 pm30 °FPassing clouds.17 mph69%30.51 "HgN/A
5:50 pm30 °FPassing clouds.16 mph69%30.51 "HgN/A
5:20 pm30 °FPassing clouds.16 mph69%30.51 "HgN/A
4:50 pm30 °FPartly sunny.16 mph69%30.48 "HgN/A
4:20 pm30 °FPartly sunny.17 mph59%30.48 "HgN/A
3:50 pm32 °FPartly sunny.20 mph55%30.48 "HgN/A
3:20 pm32 °FPartly sunny.16 mph60%30.48 "HgN/A
2:50 pm30 °FPartly sunny.16 mph64%30.48 "HgN/A
2:20 pm32 °FPartly sunny.18 mph60%30.48 "HgN/A
1:50 pm32 °FScattered clouds.15 mph64%30.48 "HgN/A
1:20 pm32 °FScattered clouds.16 mph64%30.48 "HgN/A
12:50 pm30 °FScattered clouds.17 mph69%30.48 "HgN/A
12:20 pm30 °FScattered clouds.18 mph69%30.48 "HgN/A
11:50 am30 °FPassing clouds.16 mph75%30.51 "HgN/A
11:20 am28 °FPassing clouds.16 mph80%30.51 "HgN/A
10:50 am28 °FScattered clouds.16 mph80%30.51 "HgN/A
10:20 am27 °FPartly sunny.17 mph86%30.51 "Hg6 mi
9:58 am27 °FLight snow. Partly sunny.15 mph86%30.51 "Hg4 mi
9:50 am27 °FLight snow. Broken clouds.13 mph86%30.51 "Hg3 mi
9:20 am25 °FLight snow. Broken clouds.14 mph93%30.48 "Hg5 mi
8:50 am25 °FPartly sunny.15 mph86%30.48 "HgN/A
8:20 am25 °FPartly sunny.14 mph86%30.48 "HgN/A
7:50 am25 °FPassing clouds.16 mph86%30.48 "HgN/A
7:20 am23 °FPassing clouds.15 mph93%30.45 "HgN/A
6:50 am25 °FPassing clouds.17 mph86%30.45 "HgN/A
6:20 am25 °FPassing clouds.15 mph80%30.45 "HgN/A
5:50 am25 °FPassing clouds.15 mph80%30.45 "HgN/A
5:20 am25 °FPassing clouds.17 mph80%30.45 "HgN/A
4:50 am25 °FPassing clouds.17 mph80%30.45 "HgN/A
11:20 pm
Mon, Jan 16
27 °FClear.10 mph80%30.36 "Hg10 mi
10:50 pm27 °FPassing clouds.9 mph80%30.36 "HgN/A
10:20 pm28 °FPartly cloudy.8 mph74%30.36 "HgN/A
Weather by CustomWeather, © 2017

See weather overviewHow to use our weather pages